星链-30418 (STARLINK-30418 )

导读 | 豆包AI

STARLINK-30418是美国太空探索技术公司星链星座的一员,于2023年9月9日发射入轨,归属美国。星链计划旨在构建全球卫星互联网,该卫星承担低轨宽带通信服务任务,属于星链批量部署的组网卫星,助力完善全球覆盖的卫星通信网络,推动偏远地区网络覆盖与全球互联能力提升。

基本信息
目录编号:
57829
目录名称:
STARLINK-30418
国际标识:
2023-138X
轨道中心:
EARTH
卫星名称:
星链-30418
卫星全名:
星链-30418 (STARLINK-30418 )
卫星状态:
在轨 (已飞行964 天)
发射日期:
2023-09-09 UTC
国别 :
美国 (US)
星等 :
--
轨道信息
数据来源 国际轨道数据
星历时间: 2026-04-29T20:21:43+0800
1天前
查看轨道信息
半长轴: 6861.163km
偏心率: 0.0002558
轨道倾角: 43.008°
近地点辐角 258.880°
升交点赤经 306.950°
平近点角 101.177°
近地点: 481.27km
远地点: 484.782km
周期: 94.266分钟
每日圈数: 15.275878
详细信息
固有亮度:
5
最大亮度:
0.3
卫星平台:
Starlink v2.0 mini
覆盖范围:
全球
运营商:
太空探索技术公司
运营商所在国:
美国
制造商(研发单位):
太空探索技术公司
制造商所在国:
美国
使用方式:
暂无
卫星简介
星链(Starlink)计划是由太空探索技术公司(SpaceX)提出的一个巨型低轨卫星互联网星座项目,计划在2019年至2024年间在太空搭建由约1.2万颗卫星组成的“星链”网络,其中1584颗将部署在地球上空550千米处的近地轨道,并从2020年开始工作。该卫星仍在工作。
2D轨道图
3D轨道图
轨道高度分析图
轨道倾角分析图
轨道综合分析图
查看轨道综合分析图